Homer, AK

8:13 PM AKST on February 06, 2016 (GMT -0900)
Homer

Weather History for PAHO - November, 2012

Change the Weather History Date:

Tuesday, November 20, 2012

  Actual Average Record
Temperature  
Mean Temperature 18 °F -  
Max Temperature 24 °F 35 °F 51 °F (1949)
Min Temperature 12 °F 24 °F -1 °F (1942)
Degree Days  
Heating Degree Days 47    
Moisture  
Dew Point 8 °F    
Average Humidity 64    
Maximum Humidity 73    
Minimum Humidity 55    
Precipitation  
Precipitation 0.00 in - - ()
Sea Level Pressure  
Sea Level Pressure 29.60 in    
Wind  
Wind Speed 4 mph (NE)    
Max Wind Speed 8 mph    
Max Gust Speed -    
Visibility 10 miles    
Events      
Averages and records for this station are not official NWS values.
T = Trace of Precipitation, MM = Missing Value Source: NWS Daily Summary

Daily Weather History Graph

Daily Weather History Graph

Search for Another Location

Airport or City:

Trip Planner

Search our weather history database for the weather conditions in past years. The results will help you decide how hot, cold, wet, or windy it might be!

Date:

Astronomy

Nov. 20, 2012 Rise Set
Actual Time 9:15 AM AKST 4:27 PM AKST
Civil Twilight 8:25 AM AKST 5:17 PM AKST
Nautical Twilight 7:33 AM AKST 6:09 PM AKST
Astronomical Twilight 6:44 AM AKST 6:58 PM AKST
Moon 1:56 PM AKST (11/20) No Moon Set
Length of Visible Light 8h 51m
Length of Day
7h 11m
First Quarter, 53% of the Moon is Illuminated
Nov 20
First Quarter
Nov 28
Full
Dec 6
Last Quarter
Dec 12
New
Dec 19
First Quarter

Hourly Weather History & Observations

Time (AKST) Temp. Windchill Dew Point Humidity Pressure Visibility Wind Dir Wind Speed Gust Speed Precip Events Conditions
12:53 AM 12.0 °F - 5.0 °F 73% 29.53 in 8.0 mi Calm Calm - N/A   Mostly Cloudy
1:53 AM 14.0 °F 6.5 °F 3.0 °F 62% 29.54 in 10.0 mi NE 4.6 mph - N/A   Clear
3:53 AM 14.0 °F 6.5 °F 3.9 °F 64% 29.55 in 10.0 mi NE 4.6 mph - N/A   Clear
4:53 AM 14.0 °F 6.5 °F 3.0 °F 62% 29.56 in 10.0 mi NE 4.6 mph - N/A   Clear
5:53 AM 12.9 °F - 5.0 °F 71% 29.57 in 10.0 mi Calm Calm - N/A   Clear
6:53 AM 12.0 °F - 3.9 °F 70% 29.58 in 10.0 mi Calm Calm - N/A   Clear
7:53 AM 12.9 °F 3.8 °F 5.0 °F 71% 29.59 in 10.0 mi NE 5.8 mph - N/A   Clear
8:53 AM 15.1 °F 6.4 °F 3.9 °F 61% 29.60 in 10.0 mi ENE 5.8 mph - N/A   Clear
9:53 AM 18.0 °F 11.1 °F 5.0 °F 57% 29.61 in 10.0 mi NE 4.6 mph - N/A   Mostly Cloudy
10:53 AM 21.0 °F 16.2 °F 8.1 °F 57% 29.62 in 10.0 mi NE 3.5 mph - N/A   Overcast
11:53 AM 21.9 °F 13.4 °F 10.0 °F 60% 29.62 in 10.0 mi NE 6.9 mph - N/A   Overcast
12:53 PM 21.9 °F 15.7 °F 9.0 °F 58% 29.62 in 10.0 mi NE 4.6 mph - N/A   Overcast
1:53 PM 23.0 °F 17.0 °F 9.0 °F 55% 29.62 in 10.0 mi ENE 4.6 mph - N/A   Mostly Cloudy
2:53 PM 24.1 °F 18.2 °F 10.0 °F 55% 29.62 in 10.0 mi NE 4.6 mph - N/A   Mostly Cloudy
3:53 PM 23.0 °F 14.7 °F 10.9 °F 60% 29.61 in 10.0 mi ENE 6.9 mph - N/A   Mostly Cloudy
4:53 PM 21.9 °F 14.5 °F 12.0 °F 66% 29.62 in 10.0 mi ENE 5.8 mph - 0.00 in   Mostly Cloudy
5:53 PM 21.0 °F 12.4 °F 12.0 °F 68% 29.63 in 10.0 mi NE 6.9 mph - N/A   Mostly Cloudy
6:53 PM 21.9 °F 14.5 °F 12.0 °F 66% 29.63 in 10.0 mi NE 5.8 mph - N/A   Overcast
7:53 PM 21.0 °F 13.4 °F 12.0 °F 68% 29.63 in 10.0 mi NE 5.8 mph - N/A   Overcast
8:53 PM 19.9 °F 13.4 °F 12.0 °F 71% 29.63 in 10.0 mi NE 4.6 mph - N/A   Mostly Cloudy
9:53 PM 19.0 °F 11.1 °F 10.9 °F 71% 29.64 in 10.0 mi NNE 5.8 mph - N/A   Mostly Cloudy
10:53 PM 19.0 °F 12.3 °F 10.0 °F 68% 29.64 in 10.0 mi NE 4.6 mph - N/A   Overcast
11:53 PM 19.0 °F 9.0 °F 10.0 °F 68% 29.65 in 10.0 mi NE 8.1 mph - N/A   Mostly Cloudy